User: anonymous   Login
Location: Unspecified
(0.0000°N, 0.0000°E)
Time: 23:03:30
(UTC+00:00)
Language:

D STAR ONE (LIGHTSAT) - Orbit

View from above orbital plane
View from above orbital plane
View from above satellite
View from above satellite

Ground track
Ground track

The orbit data is extracted from the following two-line orbital elements,

1 44393U 19038H   21207.45879200  .00001597  00000-0  91986-4 0  9990
2 44393  97.5907 171.8128 0021423 173.7560 186.3943 15.13709155113681
Epoch (UTC): 26 July 2021 11:00:39
Eccentricity: 0.0021423
inclination: 97.5907°
perigee height: 510 km
apogee height: 539 km
right ascension of ascending node: 171.8128°
argument of perigee: 173.7560°
revolutions per day: 15.13709155
mean anomaly at epoch: 186.3943°
orbit number at epoch: 11368

The dashed part of the orbit path shows where the satellite is in the earth's shadow,  

DLR